Location: Rounton
(54.4000°N, 1.3500°W)
Time: 22:22:18
(UTC+00:00)

Tiros 1 despin weight - Pass Details

Date: 06 December 2021
Orbit: 592 x 641 km, 48.2° (Epoch: 16 January)

Event Time Altitude Azimuth Distance (km) Brightness Sun altitude
Rises 12:31:49 0° 214° (SSW) 2,836 ? 12.7°
Reaches altitude 10° 12:34:38 10° 196° (SSW) 1,929 ? 12.6°
Maximum altitude 12:37:43 19° 151° (SSE) 1,444 ? 12.5°
Drops below altitude 10° 12:40:48 10° 107° (ESE) 1,925 ? 12.5°
Sets 12:43:36 0° 89° (E) 2,827 ? 12.4°
